Flagstaff, AZ

9:25 AM MST on December 04, 2016 (GMT -0700)
Flagstaff Pulliam

Weather History for KFLG - October, 2012

Change the Weather History Date:

Wednesday, October 24, 2012

  Actual Average Record
Temperature  
Mean Temperature 43 °F 44 °F  
Max Temperature 59 °F 59 °F 79 °F (1959)
Min Temperature 27 °F 29 °F 9 °F (1975)
Degree Days  
Heating Degree Days 22 21  
Month to date heating degree days 328 411  
Since 1 July heating degree days 538 728  
Cooling Degree Days 0 0  
Month to date cooling degree days 0 0  
Year to date cooling degree days 164 117  
Moisture  
Dew Point 22 °F    
Average Humidity 50    
Maximum Humidity 85    
Minimum Humidity 15    
Precipitation  
Precipitation 0.00 in 0.04 in 2.42 in (1992)
Month to date precipitation 1.03 1.29  
Year to date precipitation 11.79 17.86  
Snow  
Snow 0.00 in 0.00 in 1.00 in (1920)
Month to date snowfall T 0.8  
Since 1 July snowfall T 0.8  
Snow Depth 0.00 in    
Sea Level Pressure  
Sea Level Pressure 29.87 in    
Wind  
Wind Speed 12 mph (SW)    
Max Wind Speed 32 mph    
Max Gust Speed 41 mph    
Visibility 10 miles    
Events      
T = Trace of Precipitation, MM = Missing Value Source: NWS Daily Summary

Daily Weather History Graph

Daily Weather History Graph

Search for Another Location

Airport or City:

Trip Planner

Search our weather history database for the weather conditions in past years. The results will help you decide how hot, cold, wet, or windy it might be!

Date:

Astronomy

Oct. 24, 2012 Rise Set
Actual Time 6:41 AM MST 5:40 PM MST
Civil Twilight 6:15 AM MST 6:05 PM MST
Nautical Twilight 5:45 AM MST 6:35 PM MST
Astronomical Twilight 5:16 AM MST 7:04 PM MST
Moon 2:48 PM MST (10/24) 1:50 AM MST (10/24)
Length of Visible Light 11h 50m
Length of Day
10h 58m
Waxing Gibbous, 77% of the Moon is Illuminated
Oct 24
Waxing Gibbous
Oct 29
Full
Nov 6
Last Quarter
Nov 13
New
Nov 20
First Quarter

Hourly Weather History & Observations

Time (MST) Temp. Windchill Dew Point Humidity Pressure Visibility Wind Dir Wind Speed Gust Speed Precip Events Conditions
12:57 AM 44.1 °F 41.5 °F 35.1 °F 71% 29.83 in 10.0 mi West 4.6 mph - N/A   Clear
1:57 AM 43.0 °F 39.5 °F 34.0 °F 71% 29.83 in 10.0 mi WSW 5.8 mph - N/A   Clear
2:57 AM 39.9 °F 33.9 °F 34.0 °F 79% 29.83 in 10.0 mi SW 9.2 mph - N/A   Clear
3:57 AM 37.9 °F 32.7 °F 33.1 °F 83% 29.83 in 10.0 mi SSW 6.9 mph - N/A   Clear
4:57 AM 39.9 °F - 33.1 °F 77% 29.84 in 10.0 mi Calm Calm - N/A   Clear
6:57 AM 35.1 °F 32.2 °F 30.9 °F 85% 29.88 in 10.0 mi WSW 3.5 mph - N/A   Clear
7:57 AM 45.0 °F 40.6 °F 32.0 °F 60% 29.86 in 10.0 mi WSW 8.1 mph - N/A   Clear
8:57 AM 48.9 °F - 28.9 °F 46% 29.86 in 10.0 mi SW 16.1 mph 24.2 mph N/A   Clear
9:57 AM 52.0 °F - 21.0 °F 30% 29.85 in 10.0 mi WSW 15.0 mph 28.8 mph N/A   Clear
10:57 AM 54.0 °F - 17.1 °F 23% 29.84 in 10.0 mi SW 25.3 mph 36.8 mph N/A   Clear
11:57 AM 55.0 °F - 19.9 °F 25% 29.84 in 10.0 mi SW 26.5 mph 38.0 mph N/A   Clear
12:57 PM 57.0 °F - 19.0 °F 23% 29.81 in 10.0 mi SSW 19.6 mph 29.9 mph N/A   Clear
1:57 PM 57.9 °F - 21.0 °F 24% 29.78 in 10.0 mi SW 23.0 mph 32.2 mph N/A   Clear
2:57 PM 57.9 °F - 19.9 °F 23% 29.81 in 10.0 mi WSW 25.3 mph 33.4 mph N/A   Clear
3:57 PM 57.0 °F - 10.9 °F 16% 29.83 in 10.0 mi SW 23.0 mph 34.5 mph N/A   Clear
4:57 PM 55.0 °F - 10.9 °F 17% 29.84 in 10.0 mi SW 18.4 mph 28.8 mph N/A   Clear
5:57 PM 51.1 °F - 15.1 °F 24% 29.91 in 10.0 mi WSW 17.3 mph 27.6 mph N/A   Clear
6:57 PM 48.0 °F - 17.1 °F 29% 29.92 in 10.0 mi WSW 15.0 mph 23.0 mph N/A   Clear
7:57 PM 46.0 °F 41.4 °F 14.0 °F 28% 29.91 in 10.0 mi WSW 9.2 mph - N/A   Clear
8:57 PM 41.0 °F - 12.9 °F 32% 29.96 in 10.0 mi Calm Calm - N/A   Clear
9:57 PM 35.1 °F 32.2 °F 14.0 °F 42% 29.99 in 10.0 mi SW 3.5 mph - N/A   Clear
10:57 PM 32.0 °F - 15.1 °F 50% 30.01 in 10.0 mi Calm Calm - N/A   Clear
11:57 PM 28.0 °F - 14.0 °F 56% 30.03 in 10.0 mi Calm Calm - N/A   Clear